Regional Weather Roundup
Issued by NWS Sioux Falls, SD

Home | Current Version | Previous Version | Text Only | Print | Product List | Glossary On
Versions: 1 2 3 4 5 6 7 8 9 10 11 12 13 14 15 16 17 18 19 20 21 22 23 24 25 26 27 28 29 30 31 32 33 34 35 36 37 38 39 40 41 42 43 44 45 46 47 48 49 50
000
ASUS43 KFSD 051102
RWRFSD

WEATHER ROUNDUP FOR SE SOUTH DAKOTA/SW MINNESOTA/NW IOWA
NATIONAL WEATHER SERVICE SIOUX FALLS SD
600 AM CDT SUN JUL 05 2015

NOTE: "FAIR" INDICATES FEW OR NO CLOUDS BELOW 12,000 FEET WITH NO
SIGNIFICANT WEATHER AND OR OBSTRUCTIONS TO VISIBILITY.


SDZ038>040-050-052>070-051200-
SOUTHEAST SOUTH DAKOTA

CITY           SKY/WX    TMP DP  RH WIND       PRES   REMARKS
BROOKINGS      CLOUDY    68  63  83 S15       29.93R THUNDER
CHAMBERLAIN    CLEAR     67  65  93 E3        29.76S
HURON          PTCLDY    70  66  87 SE14G23   29.78F
MADISON        TSTM      66  66 100 N7        29.93R
MITCHELL       PTCLDY    69  65  86 SE14      29.82R
SIOUX FALLS    CLOUDY    69  63  81 S10       29.90R THUNDER
WINNER         FAIR      69  63  81 NE7       29.75R
YANKTON        CLOUDY    70  64  83 S18       29.86R
$$

MNZ071-072-080-081-089-090-097-098-051200-
SOUTHWEST MINNESOTA

CITY           SKY/WX    TMP DP  RH WIND       PRES   REMARKS
FAIRMONT       MOCLDY    63  55  77 S10       29.93S
JACKSON        CLOUDY    64  59  82 S8        29.94R
MARSHALL       CLOUDY    72  61  68 S6        29.87R
MONTEVIDEO     CLOUDY    66  63  88 S7        29.87R
PIPESTONE      CLOUDY    68  63  83 S9        29.90R
REDWOOD FALLS  MOCLDY    63  60  90 SE7       29.89R
TRACY          CLOUDY    70  62  76 S12       29.88S
WINDOM         CLOUDY    70  61  73 S8        29.92R
WORTHINGTON    CLOUDY    64  57  77 S10       29.93R
$$

IAZ001>003-012>014-020>022-031-032-NEZ013-014-SDZ071-051200-
NORTHWEST IOWA

CITY           SKY/WX    TMP DP  RH WIND       PRES   REMARKS
DENISON        MOCLDY    66  63  88 S9G15     29.91F
ESTHERVILLE    MOCLDY    60  59  96 S7        29.94R
SIOUX CITY     MOCLDY    68  61  78 SE10      29.87F
SPENCER        CLOUDY    65  59  81 S8        29.93R
$$

ABBREVIATIONS USED IN REMARKS
   TC - TEMPERATURE IN CELSIUS
  WCI - WIND CHILL INDEX
   HX - HEAT INDEX
  VSB - VISIBILITY




USA.gov is the U.S. government's official web portal to all federal, state and local government web resources and services.